Home   Weather   Sankt Ingbert   Past weeks

Flag for Germany Past Weather in Sankt Ingbert, Saarland, Germany — Yesterday and Last 2 Weeks

Now
46 °F

Scattered clouds.


Feels Like: 45 °F
Forecast: 30 / 52 °F
Wind: 3 mph from North

Location: Saarbruecken / Ensheim

Current Time: Apr 27, 2017 at 11:15:52 am

Latest Report: Apr 27, 2017 at 10:50 am


Visibility: N/A

Pressure: 29.98 "Hg

Humidity: 53%

Dew Point: 30 °F

Location of Sankt IngbertLocation

Past Weather in Sankt Ingbert — Graph

°F

Sankt Ingbert Temperature Yesterday

Maximum temperature yesterday: 48 °F (at 12:50 pm)
Minimum temperature yesterday: 37 °F (at 4:20 am)
Average temperature yesterday: 43 °F

High & Low Weather Summary for the Past Weeks

 TemperatureHumidityPressure
High63 °F (Apr 12, 4:20 pm)100% (Apr 16, 5:50 am)30.57 "Hg (Apr 16, 5:50 am)
Low27 °F (Apr 20, 6:20 am)28% (Apr 20, 5:50 pm)29.74 "Hg (Apr 25, 3:20 am)
Average45 °F64%30.13 "Hg
* Reported Apr 12 10:20 am — Apr 27 10:20 am, Sankt Ingbert, Weather by CustomWeather, © 2017

Note: Actual official high and low records may vary slightly from our data, if they occured in-between our weather recording intervals... More about our weather records

Advertising

Sankt Ingbert Weather History for the Previous 24 Hours

Scroll right to see more
 ConditionsComfort  
Time TempWeatherWind HumidityBarometerVisibility
10:20 am
Thu, Apr 27
46 °FScattered clouds.5 mph57%29.98 "HgN/A
9:50 am45 °FScattered clouds.3 mph61%29.98 "HgN/A
9:20 am45 °FPassing clouds.6 mph61%29.98 "HgN/A
8:50 am43 °FScattered clouds.3 mph66%29.98 "HgN/A
8:20 am41 °FScattered clouds.3 mph70%29.98 "HgN/A
7:50 am39 °FScattered clouds.2 mph81%29.95 "HgN/A
6:50 am37 °FBroken clouds.3 mph81%29.95 "HgN/A
6:20 am36 °FBroken clouds.5 mph87%29.95 "HgN/A
5:50 am37 °FPartly cloudy.3 mph81%29.95 "HgN/A
4:50 am39 °FLight rain. Partly cloudy.1 mph75%29.92 "HgN/A
3:50 am39 °FPassing clouds.1 mph75%29.92 "HgN/A
3:20 am39 °FOvercast.3 mph75%29.92 "HgN/A
2:50 am39 °FPassing clouds.2 mph75%29.92 "HgN/A
2:20 am39 °FPassing clouds.1 mph75%29.92 "HgN/A
1:50 am39 °FPassing clouds.2 mph75%29.92 "HgN/A
1:20 am41 °FPassing clouds.5 mph66%29.92 "HgN/A
12:50 am41 °FPassing clouds.8 mph66%29.95 "HgN/A
12:20 am41 °FPassing clouds.8 mph66%29.92 "HgN/A
11:50 pm
Wed, Apr 26
43 °FPassing clouds.6 mph57%29.92 "HgN/A
11:20 pm43 °FPassing clouds.7 mph57%29.92 "HgN/A
10:50 pm43 °FPartly cloudy.6 mph53%29.92 "HgN/A
10:20 pm43 °FPassing clouds.2 mph61%29.92 "HgN/A
9:50 pm43 °FPassing clouds.5 mph61%29.92 "HgN/A
9:20 pm43 °FPassing clouds.5 mph61%29.89 "HgN/A
8:50 pm43 °FPassing clouds.3 mph66%29.89 "HgN/A
7:50 pm43 °FBroken clouds.6 mph66%29.89 "HgN/A
7:20 pm45 °FBroken clouds.6 mph57%29.86 "HgN/A
6:50 pm46 °FLight rain. Broken clouds.5 mph50%29.86 "HgN/A
6:20 pm46 °FMore clouds than sun.6 mph53%29.86 "HgN/A
5:50 pm46 °FMore clouds than sun.3 mph53%29.86 "HgN/A
5:20 pm46 °FMore clouds than sun.3 mph53%29.86 "HgN/A
4:50 pm46 °FMore clouds than sun.6 mph50%29.86 "HgN/A
4:20 pm46 °FMore clouds than sun.2 mph50%29.89 "HgN/A
3:50 pm46 °FLight rain. More clouds than sun.2 mph53%29.89 "HgN/A
3:20 pm46 °FPartly sunny.7 mph53%29.86 "HgN/A
2:50 pm46 °FPartly sunny.7 mph57%29.86 "HgN/A
2:20 pm45 °FBroken clouds.3 mph57%29.86 "HgN/A
1:50 pm45 °FSprinkles. Broken clouds.6 mph53%29.86 "HgN/A
1:20 pm46 °FScattered showers. Broken clouds.3 mph46%29.86 "HgN/A
12:50 pm48 °FScattered showers. Broken clouds.5 mph43%29.86 "HgN/A
11:50 am45 °FBroken clouds.6 mph53%29.86 "HgN/A
11:20 am45 °FBroken clouds.7 mph53%29.86 "HgN/A
Weather by CustomWeather, © 2017

See weather overviewHow to use our weather pages